[[{"header":{"parameterUnit":"m.s-1","parameterCategory":1,"la1":30.2991,"la2":30.254,"lo1":-89.0895,"lo2":-89.0444,"dy":0.0017,"dx":0.0017,"nx":28,"ny":28,"refTime":"2023-08-14T03:00:00:Z","depth":0,"parameterNumber":2,"parameterNumberName":"U-component_of_WINDS"},"data":[0,0,0,0,0,0,0,0,0,0,0,0,0,0,0,0,0,0,0,0,0,0,0,0,0,0,0,0,0,0,0,0,0,0,0,0,0,0,0,0,0,0,0,0,0,0,0,0,0,0,0,0,0,0,0,0,0,0,0.7166,0.7166,0,0.7178,0.7179,0.7179,0.7142,0.7141,0.7139,0.7138,0.7154,0.7156,0.7157,0,0,0,0,0,0,0,0,0,0,0,0,0,0.7111,0.7112,0.7166,0.7166,0.7166,0.7178,0.7179,0.7179,0.7142,0.7141,0.7139,0.7138,0.7154,0.7156,0.7157,0,0,0,0,0,0,0,0,0,0,0,0,0,0.713,0.7113,0.7166,0.7149,0.7148,0.7178,0.7179,0.7179,0.7142,0.7141,0.7139,0.7137,0.7153,0.7155,0.7158,0.7206,0,0,0.7165,0.7166,0,0,0,0,0,0,0,0,0.7129,0.7133,0.7152,0.7151,0.7149,0.7157,0.7165,0.7188,0.7143,0.7145,0.7138,0.7136,0.7157,0.7159,0.7165,0.7207,0.7207,0.7165,0.7166,0.7167,0.7168,0,0,0,0,0,0,0,0.7128,0.7132,0.7171,0.7152,0.715,0.7141,0.7142,0.7169,0.716,0.7144,0.7142,0.7143,0.7156,0.7163,0.7165,0.7207,0.7165,0.7167,0.7168,0.7169,0.7286,0.7288,0,0,0,0,0,0,0.7129,0.7131,0.7171,0.7171,0.7135,0.7144,0.7145,0.7156,0.716,0.7159,0.7145,0.7142,0.716,0.7162,0.7165,0.722,0.7167,0.7169,0.717,0.7284,0.7286,0.7288,0,0,0,0,0,0,0.7128,0.7133,0.717,0.715,0.7154,0.7146,0.716,0.7157,0.7164,0.716,0.7159,0.7154,0.7159,0.7162,0.7195,0.722,0.717,0.7172,0.7282,0.7285,0.7287,0.7331,0,0,0,0,0,0,0.7126,0.7132,0.7151,0.7151,0.7156,0.72,0.7161,0.7159,0.7168,0.7164,0.7168,0.7167,0.7157,0.7192,0.7197,0.7222,0.7174,0.728,0.7283,0.7287,0.7327,0.7335,0.7341,0,0,0,0,0,0.7124,0.7164,0.7152,0.7157,0.7178,0.7201,0.7204,0.7191,0.717,0.7188,0.7185,0.7167,0.7216,0.7196,0.7201,0.7227,0.7278,0.7282,0.7286,0.7324,0.7333,0.7341,0,0,0,0,0,0,0.7169,0.7164,0.7151,0.7191,0.7197,0.7195,0.7218,0.7202,0.7214,0.721,0.7194,0.7196,0.7231,0.7232,0.721,0.7272,0.7244,0.7249,0.7271,0.7279,0.7286,0.7285,0.7176,0,0,0,0,0,0.7183,0.7202,0.7197,0.7233,0.7236,0.7226,0.7236,0.7225,0.7231,0.7233,0.7233,0.7239,0.7256,0.7268,0.7283,0.7327,0.7326,0.7347,0.7354,0.736,0.7365,0.7386,0.7395,0.7301,0.7301,0.7301,0,0,0.7214,0.7213,0.7226,0.7242,0.7245,0.7264,0.7229,0.7252,0.7266,0.7237,0.7267,0.7267,0.7273,0.7311,0.7328,0.7313,0.739,0.7365,0.737,0.7372,0.7391,0.74,0.7408,0.7304,0.7304,0.7303,0,0,0.7279,0.7281,0.731,0.7313,0.7317,0.7309,0.7316,0.7316,0.7314,0.7344,0.7322,0.7338,0.7368,0.7372,0.7379,0.7441,0.7425,0.7447,0.7484,0.7504,0.7512,0.7518,0.7539,0.7547,0.7452,0.7452,0.7452,0,0.7317,0.7345,0.7328,0.7351,0.7358,0.733,0.7359,0.7363,0.7372,0.7378,0.7361,0.7395,0.7398,0.7435,0.745,0.7456,0.7463,0.7447,0.7512,0.7518,0.7524,0.7544,0.7552,0.7454,0.7454,0.7454,0.7453,0,0.739,0.741,0.7433,0.744,0.7449,0.7476,0.7462,0.7473,0.7461,0.7455,0.7484,0.7485,0.7499,0.7507,0.7496,0.7542,0.7533,0.7514,0.7485,0.7535,0.7554,0.7562,0.7458,0.7457,0.7456,0.7456,0,0,0.7488,0.7481,0.749,0.7492,0.7492,0.7507,0.7531,0.7542,0.7552,0.7558,0.7578,0.7601,0.7583,0.759,0.7579,0.7597,0.7644,0.7575,0.7575,0.7587,0.7693,0.7707,0.7716,0.7632,0.7634,0.7635,0.7692,0,0.7551,0.759,0.7574,0.7615,0.7632,0.7604,0.7624,0.7627,0.7621,0.7634,0.7628,0.7645,0.762,0.7623,0.764,0.7635,0.7665,0.763,0.765,0.7651,0.765,0.7726,0.7742,0.7796,0.7699,0.7701,0.7701,0,0.7631,0.7638,0.768,0.7674,0.7681,0.7699,0.7707,0.772,0.7721,0.7716,0.7721,0.7705,0.7728,0.7697,0.7728,0.7704,0.7711,0.7709,0.7711,0.7713,0.768,0.773,0.7813,0.7821,0.7713,0.7712,0.7711,0,0.7696,0.7716,0.7743,0.7745,0.774,0.7753,0.7752,0.7751,0.7758,0.7764,0.7769,0.7779,0.7784,0.7792,0.7779,0.7758,0.781,0.7779,0.7806,0.7806,0.7819,0.7819,0.7905,0.7824,0.7824,0.7823,0.7823,0,0.7769,0.7796,0.7772,0.7789,0.7817,0.7797,0.7826,0.7821,0.782,0.7835,0.7812,0.7827,0.7808,0.7821,0.781,0.7836,0.7839,0.7835,0.7832,0.7837,0.7838,0.7842,0.7838,0.7826,0.7825,0.7825,0.7824,0,0.7847,0.7832,0.786,0.7851,0.7849,0.787,0.7862,0.7877,0.7868,0.7888,0.7891,0.7878,0.7891,0.7878,0.7891,0.7884,0.7918,0.791,0.7917,0.7915,0.7942,0.794,0.8034,0.8045,0.7957,0.7958,0.7959,0,0.7895,0.7914,0.7906,0.7913,0.7912,0.7926,0.7931,0.7911,0.7919,0.7919,0.7934,0.7945,0.7953,0.7975,0.7967,0.7977,0.7968,0.8,0.797,0.7973,0.7968,0.7967,0.7968,0.8007,0.8008,0.8009,0.801,0,0.7981,0.7971,0.798,0.7985,0.7992,0.7996,0.7998,0.8006,0.7985,0.7994,0.8006,0.8012,0.8024,0.8035,0.8041,0.8039,0.8021,0.8019,0.8025,0.8031,0.8035,0.8032,0.7934,0.8017,0.8017,0.8016,0.8016,0.8015,0.8045,0.806,0.8055,0.8065,0.8063,0.8065,0.8078,0.8069,0.8078,0.8085,0.8072,0.8087,0.8085,0.8091,0.8092,0.8103,0.8089,0.8099,0.8102,0.8104,0.8108,0.8032,0.8104,0.8104,0.8104,0.8103,0.8103,0,0.8129,0.8123,0.8132,0.8134,0.8141,0.8121,0.8121,0.8129,0.8141,0.814,0.8147,0.816,0.8169,0.816,0.8168,0.8179,0.817,0.8181,0.8181,0.818,0.812,0.8113,0.8188,0.8188,0.8188,0.8188,0.8188,0.8188,0.8173,0.8197,0.8186,0.8207,0.8202,0.8215,0.8217,0.8217,0.8216,0.8231,0.8237,0.823,0.8226,0.8232,0.8239,0.8236,0.824,0.8254,0.8249,0.8193,0.8185,0.8177,0.817,0.8255,0.8255,0.8307,0.8308,0.8308]},{"header":{"parameterUnit":"m.s-1","parameterCategory":1,"la1":30.2991,"la2":30.254,"lo1":-89.0895,"lo2":-89.0444,"dy":0.0017,"dx":0.0017,"nx":28,"ny":28,"refTime":"2023-08-14T03:00:00:Z","depth":0,"parameterNumber":3,"parameterNumberName":"V-component_of_WINDS"},"data":[0,0,0,0,0,0,0,0,0,0,0,0,0,0,0,0,0,0,0,0,0,0,0,0,0,0,0,0,0,0,0,0,0,0,0,0,0,0,0,0,0,0,0,0,0,0,0,0,0,0,0,0,0,0,0,0,0,0,5.0971,5.0972,0,5.1014,5.1015,5.1015,5.0954,5.0952,5.095,5.0948,5.0986,5.0989,5.0992,0,0,0,0,0,0,0,0,0,0,0,0,0,5.083,5.0833,5.0971,5.0972,5.0972,5.1014,5.1015,5.1015,5.0954,5.0952,5.0949,5.0947,5.0985,5.0988,5.0992,0,0,0,0,0,0,0,0,0,0,0,0,0,5.0884,5.0834,5.0971,5.0947,5.0946,5.1014,5.1015,5.1015,5.0955,5.0952,5.0949,5.0946,5.0984,5.0988,5.0992,5.1085,0,0,5.1006,5.1008,0,0,0,0,0,0,0,0,5.0881,5.0889,5.095,5.0949,5.0947,5.0976,5.0979,5.1038,5.0956,5.0951,5.0948,5.0944,5.0985,5.0989,5.1004,5.1086,5.1088,5.1007,5.1009,5.1011,5.1013,0,0,0,0,0,0,0,5.0877,5.0887,5.0988,5.0951,5.0949,5.0932,5.0936,5.099,5.0985,5.0951,5.0947,5.0953,5.0983,5.1,5.1004,5.1088,5.1006,5.1011,5.1013,5.1015,5.1246,5.125,0,0,0,0,0,0,5.0877,5.0884,5.0987,5.0989,5.0906,5.0937,5.0942,5.097,5.0985,5.0984,5.0956,5.095,5.0993,5.0999,5.1005,5.1112,5.1011,5.1015,5.1018,5.1243,5.1247,5.1251,0,0,0,0,0,0,5.0875,5.0887,5.0985,5.0936,5.0947,5.0943,5.0975,5.0972,5.0989,5.0988,5.0986,5.0974,5.0991,5.0999,5.1065,5.1113,5.1018,5.1022,5.1239,5.1244,5.1249,5.1328,0,0,0,0,0,0,5.0871,5.0887,5.0923,5.0937,5.095,5.1046,5.0978,5.0975,5.0997,5.099,5.1005,5.1004,5.0989,5.1059,5.107,5.1117,5.1025,5.1234,5.1241,5.1247,5.1321,5.1336,5.1348,0,0,0,0,0,5.0866,5.0943,5.0925,5.0938,5.0996,5.1049,5.1056,5.104,5.1001,5.1037,5.1036,5.1003,5.1106,5.1066,5.1078,5.1128,5.1231,5.1239,5.1247,5.1316,5.1333,5.1348,0,0,0,0,0,0,5.0933,5.0944,5.0925,5.1009,5.1029,5.1039,5.1083,5.1059,5.1088,5.108,5.1056,5.106,5.1131,5.1136,5.1091,5.1216,5.1162,5.1173,5.121,5.1227,5.124,5.1236,5.1029,0,0,0,0,0,5.0958,5.1003,5.1009,5.1083,5.1094,5.1087,5.111,5.1095,5.1114,5.1121,5.1126,5.1143,5.1179,5.1204,5.1237,5.1322,5.1323,5.1362,5.1375,5.1386,5.1395,5.1438,5.1455,5.1276,5.1276,5.1276,0,0,5.1009,5.1021,5.105,5.1096,5.111,5.1154,5.1094,5.1144,5.1176,5.1128,5.1191,5.1195,5.1213,5.1289,5.1322,5.1295,5.1445,5.1396,5.1405,5.1407,5.1448,5.1465,5.148,5.1281,5.1281,5.128,0,0,5.1124,5.1139,5.1201,5.1216,5.1238,5.1233,5.1248,5.1262,5.1263,5.1326,5.1291,5.1327,5.1391,5.1405,5.142,5.154,5.151,5.1552,5.1619,5.1662,5.1676,5.1688,5.1729,5.1745,5.1561,5.1561,5.1561,0,5.1184,5.1252,5.1235,5.1288,5.1308,5.1269,5.133,5.1345,5.1376,5.1389,5.1359,5.1437,5.1446,5.1524,5.1553,5.1568,5.1582,5.1549,5.1676,5.1688,5.1699,5.1738,5.1754,5.1566,5.1565,5.1564,5.1564,0,5.1323,5.1371,5.1418,5.145,5.1476,5.1533,5.1522,5.155,5.1533,5.1531,5.1594,5.1605,5.1638,5.1656,5.164,5.1731,5.1713,5.168,5.1625,5.1721,5.1757,5.1772,5.1572,5.1571,5.1569,5.1568,0,0,5.1481,5.1504,5.1522,5.1535,5.1556,5.1591,5.1645,5.168,5.1703,5.1726,5.1768,5.1823,5.1792,5.1809,5.1794,5.1832,5.1924,5.1794,5.1794,5.1816,5.2023,5.2046,5.2064,5.1905,5.1908,5.191,5.2021,0,5.1595,5.169,5.1676,5.1766,5.1808,5.1771,5.1818,5.1834,5.1834,5.1867,5.1865,5.1904,5.1861,5.1871,5.1907,5.1906,5.1965,5.1898,5.1942,5.1944,5.1937,5.2083,5.2108,5.2212,5.2035,5.2037,5.2039,0,5.174,5.1769,5.1864,5.1878,5.1895,5.1937,5.1967,5.2001,5.2018,5.2015,5.2035,5.2012,5.2063,5.2009,5.2078,5.2032,5.205,5.2052,5.2055,5.2057,5.1996,5.2087,5.2245,5.226,5.2061,5.2059,5.2058,0,5.1843,5.1906,5.1971,5.1984,5.2002,5.2032,5.204,5.2055,5.2076,5.2102,5.2115,5.2146,5.2163,5.2186,5.2172,5.2134,5.2243,5.2188,5.2239,5.224,5.2262,5.226,5.2423,5.2277,5.2277,5.2277,5.2276,0,5.197,5.2029,5.2017,5.2056,5.2121,5.2104,5.2167,5.217,5.2184,5.2221,5.2192,5.2227,5.2208,5.2241,5.223,5.2288,5.2296,5.2293,5.2289,5.2294,5.2295,5.2304,5.2296,5.2281,5.228,5.2279,5.2278,0,5.2095,5.209,5.2157,5.2169,5.2173,5.222,5.2229,5.2265,5.2262,5.231,5.232,5.2315,5.2353,5.2342,5.2382,5.2375,5.2447,5.2435,5.2442,5.2438,5.2489,5.2484,5.2662,5.2684,5.2526,5.2527,5.2529,0,5.2175,5.222,5.2237,5.2261,5.2272,5.2312,5.2334,5.2318,5.2342,5.2365,5.2397,5.2433,5.2461,5.2523,5.2521,5.2552,5.2539,5.2599,5.2543,5.2547,5.2537,5.2534,5.2537,5.2609,5.2611,5.2613,5.2614,0,5.2318,5.2313,5.2347,5.238,5.2408,5.2433,5.2454,5.2475,5.2461,5.2489,5.2528,5.255,5.2592,5.2627,5.2655,5.2661,5.2635,5.2632,5.2645,5.265,5.2652,5.265,5.247,5.2628,5.2626,5.2625,5.2624,5.2624,5.2422,5.2459,5.2477,5.2515,5.253,5.2551,5.2585,5.2587,5.262,5.2654,5.2642,5.2687,5.2702,5.2737,5.2747,5.278,5.2756,5.2776,5.2781,5.2785,5.2791,5.2648,5.2785,5.2785,5.2784,5.2784,5.2784,0,5.2561,5.2571,5.2606,5.2638,5.2668,5.2643,5.2666,5.2691,5.2731,5.2748,5.2777,5.2821,5.2855,5.2856,5.2887,5.2913,5.2902,5.2922,5.2919,5.292,5.2811,5.2796,5.293,5.293,5.293,5.293,5.293,5.293,5.2637,5.2698,5.2695,5.2763,5.2771,5.2816,5.2831,5.2849,5.2863,5.2914,5.2943,5.2944,5.2954,5.2986,5.3015,5.3014,5.3026,5.305,5.3045,5.2943,5.2928,5.2914,5.2899,5.3054,5.3054,5.3151,5.3152,5.3152]}]]